Time,TemperatureF,DewpointF,PressureIn,WindDirection,WindDirectionDegrees,WindSpeedMPH,WindSpeedGustMPH,Humidity,HourlyPrecipIn,Conditions,Clouds,dailyrainin,SoftwareType,DateUTC
2013-08-19 00:12:00,67.0,65.0,30.19,WSW,252,0.0,0.0,94,0.00,,,0.02,,2013-08-19 04:12:00,
2013-08-19 00:23:00,67.0,66.0,30.18,WSW,252,0.0,0.0,95,0.00,,,0.02,,2013-08-19 04:23:00,
2013-08-19 00:53:00,67.0,66.0,30.18,WSW,252,0.0,0.0,95,0.00,,,0.02,,2013-08-19 04:53:00,
2013-08-19 01:22:00,67.0,66.0,30.18,WSW,252,0.0,0.0,95,0.00,,,0.02,,2013-08-19 05:22:00,
2013-08-19 01:52:00,66.0,65.0,30.17,WSW,252,0.0,0.0,96,0.00,,,0.02,,2013-08-19 05:52:00,
2013-08-19 02:21:00,66.0,65.0,30.17,WSW,252,0.0,0.0,96,0.00,,,0.02,,2013-08-19 06:21:00,
2013-08-19 02:52:00,66.0,65.0,30.16,WSW,252,0.0,0.0,96,0.00,,,0.02,,2013-08-19 06:52:00,
2013-08-19 03:21:00,66.0,65.0,30.15,WSW,252,0.0,0.0,96,0.00,,,0.02,,2013-08-19 07:21:00,
2013-08-19 03:52:00,66.0,65.0,30.15,WSW,252,0.0,0.0,96,0.00,,,0.02,,2013-08-19 07:52:00,
2013-08-19 04:21:00,66.0,65.0,30.15,WSW,252,0.0,0.0,96,0.00,,,0.02,,2013-08-19 08:21:00,
2013-08-19 04:52:00,66.0,65.0,30.15,WSW,252,0.0,0.0,96,0.00,,,0.02,,2013-08-19 08:52:00,
2013-08-19 05:22:00,65.0,64.0,30.14,WSW,252,0.0,0.0,96,0.00,,,0.02,,2013-08-19 09:22:00,
2013-08-19 05:53:00,65.0,64.0,30.14,WSW,252,0.0,0.0,97,0.00,,,0.02,,2013-08-19 09:53:00,
2013-08-19 06:23:00,65.0,64.0,30.14,WSW,252,0.0,0.0,97,0.01,,,0.03,,2013-08-19 10:23:00,
2013-08-19 06:52:00,65.0,64.0,30.15,WSW,252,0.0,0.0,97,0.03,,,0.05,,2013-08-19 10:52:00,
2013-08-19 07:22:00,65.0,64.0,30.15,WSW,252,0.0,0.0,97,0.08,,,0.11,,2013-08-19 11:22:00,
2013-08-19 07:52:00,65.0,64.0,30.15,WNW,294,0.0,2.0,97,0.13,,,0.18,,2013-08-19 11:52:00,
2013-08-19 08:21:00,66.0,65.0,30.16,WNW,294,0.0,0.0,97,0.07,,,0.17,,2013-08-19 12:21:00,
2013-08-19 08:52:00,66.0,65.0,30.16,WNW,294,0.0,0.0,97,0.01,,,0.17,,2013-08-19 12:52:00,
2013-08-19 09:22:00,66.0,65.0,30.16,WNW,294,0.0,0.0,97,0.00,,,0.17,,2013-08-19 13:22:00,
2013-08-19 09:52:00,67.0,66.0,30.16,WNW,294,0.0,0.0,97,0.00,,,0.17,,2013-08-19 13:52:00,
2013-08-19 10:21:00,67.0,66.0,30.16,WNW,294,0.0,1.0,97,0.00,,,0.17,,2013-08-19 14:21:00,
2013-08-19 10:52:00,68.0,67.0,30.15,WNW,294,0.0,0.0,96,0.00,,,0.17,,2013-08-19 14:52:00,
2013-08-19 11:22:00,69.0,67.0,30.15,WNW,283,0.0,2.0,93,0.00,,,0.17,,2013-08-19 15:22:00,
2013-08-19 11:54:00,70.0,67.0,30.16,SSW,202,0.0,1.0,90,0.00,,,0.17,,2013-08-19 15:54:00,
2013-08-19 12:23:00,71.0,69.0,30.15,West,281,0.0,3.0,92,0.00,,,0.17,,2013-08-19 16:23:00,
2013-08-19 13:30:00,72.0,-99.9,30.15,WNW,300,0.0,2.0,86,0.00,,,0.17,,2013-08-19 17:30:00,
2013-08-19 13:57:00,71.0,67.0,30.14,WNW,300,0.0,4.0,88,0.00,,,0.17,,2013-08-19 17:57:00,
2013-08-19 14:28:00,73.0,68.0,30.13,West,276,0.0,2.0,83,0.00,,,0.17,,2013-08-19 18:28:00,
2013-08-19 14:50:00,-999.0,-99.9,30.13,SSE,150,0.0,2.0,78,0.00,,,0.17,,2013-08-19 18:50:00,
2013-08-19 15:00:00,-999.0,-99.9,30.13,SSE,150,0.0,2.0,78,0.00,,,0.17,,2013-08-19 19:00:00,
2013-08-19 15:30:00,-999.0,-99.9,30.12,NW,326,0.0,3.0,78,0.00,,,0.17,,2013-08-19 19:30:00,
2013-08-19 15:59:00,74.0,67.0,30.12,NNW,334,1.0,4.0,79,0.00,,,0.17,,2013-08-19 19:59:00,
2013-08-19 16:30:00,77.0,-99.9,30.12,WNW,296,0.0,3.0,74,0.00,,,0.17,,2013-08-19 20:30:00,
2013-08-19 17:00:00,-999.0,-99.9,30.11,WNW,296,1.0,3.0,-999,-99.99,,,-99.99,,2013-08-19 21:00:00,
2013-08-19 17:25:00,77.0,67.0,30.10,NW,308,0.0,2.0,72,0.00,,,0.17,,2013-08-19 21:25:00,
2013-08-19 17:55:00,77.0,68.0,30.10,WNW,288,0.0,5.0,73,0.00,,,0.17,,2013-08-19 21:55:00,
2013-08-19 18:25:00,77.0,66.0,30.10,NW,304,1.0,3.0,70,0.00,,,0.17,,2013-08-19 22:25:00,
2013-08-19 18:55:00,77.0,67.0,30.10,West,271,0.0,3.0,71,0.00,,,0.17,,2013-08-19 22:55:00,
2013-08-19 19:25:00,75.0,67.0,30.10,WSW,243,0.0,2.0,75,0.00,,,0.17,,2013-08-19 23:25:00,
2013-08-19 19:55:00,74.0,65.0,30.10,WSW,244,0.0,1.0,73,0.00,,,0.17,,2013-08-19 23:55:00,
2013-08-19 20:24:00,72.0,65.0,30.11,WSW,244,0.0,2.0,79,0.00,,,0.17,,2013-08-20 00:24:00,
2013-08-19 20:42:00,71.0,64.0,30.11,WSW,244,0.0,1.0,78,0.00,,,0.17,,2013-08-20 00:42:00,
2013-08-19 20:53:00,71.0,64.0,30.11,WSW,244,0.0,1.0,78,0.00,,,0.17,,2013-08-20 00:53:00,
2013-08-19 21:22:00,70.0,63.0,30.12,WSW,244,0.0,1.0,78,0.00,,,0.17,,2013-08-20 01:22:00,
2013-08-19 21:42:00,69.0,63.0,30.13,WSW,244,0.0,0.0,81,0.00,,,0.17,,2013-08-20 01:42:00,
2013-08-19 21:52:00,67.0,62.0,30.14,WSW,244,0.0,0.0,84,0.00,,,0.17,,2013-08-20 01:52:00,
2013-08-19 22:21:00,65.0,62.0,30.14,WSW,244,0.0,1.0,89,0.00,,,0.17,,2013-08-20 02:21:00,
2013-08-19 22:52:00,64.0,61.0,30.14,WSW,244,0.0,0.0,90,0.00,,,0.17,,2013-08-20 02:52:00,
2013-08-19 23:22:00,63.0,60.0,30.14,WSW,244,0.0,0.0,91,0.00,,,0.17,,2013-08-20 03:22:00,
2013-08-19 23:54:00,62.0,60.0,30.15,WSW,244,0.0,0.0,93,0.00,,,0.17,,2013-08-20 03:54:00,